DW1779 Weather Reports


time (UTC)temp
F
wind
direction
speed
knots
gust
knots
rain 1hr
in
rain 24hr
in
rain mn
in
humidity
%
barometer
mb
20260506050641 43 46 0.0 3.5 0.02 0.38 0.00 95 1013.6
20260506045040 43 327 1.7 4.3 0.02 0.38 0.38 94 1013.0
20260506044540 43 340 1.7 4.3 0.01 0.37 0.37 94 1013.4
20260506044039 43 34 1.7 8.7 0.01 0.37 0.37 94 1013.4
20260506043542 43 346 1.7 7.0 0.00 0.36 0.36 94 1013.2
20260506043038 43 355 1.7 5.2 0.00 0.36 0.36 94 1013.1
20260506042537 43 13 0.9 7.8 0.00 0.36 0.36 94 1012.8
20260506042037 42 360 0.9 7.8 0.00 0.36 0.36 94 1012.6
20260506041539 42 65 1.7 7.8 0.00 0.36 0.36 94 1012.8
20260506041036 42 351 1.7 5.2 0.00 0.36 0.36 94 1012.6
20260506040637 42 333 1.7 5.2 0.00 0.36 0.36 94 1012.7
20260506040040 42 355 1.7 7.8 0.00 0.36 0.36 94 1012.7
20260506035542 42 70 1.7 8.7 0.00 0.36 0.36 94 1012.9
20260506035040 43 348 2.6 8.7 0.00 0.36 0.36 94 1013.0
20260506034541 42 322 2.6 7.0 0.00 0.36 0.36 94 1013.2
20260506034040 42 49 0.9 8.7 0.01 0.36 0.36 94 1013.0
20260506033539 42 334 1.7 8.7 0.02 0.36 0.36 94 1013.1
20260506033039 42 9 3.5 11.3 0.02 0.36 0.36 94 1013.1
20260506032538 42 41 4.3 11.3 0.03 0.36 0.36 94 1012.4
20260506032038 42 11 3.5 7.8 0.03 0.36 0.36 94 1013.1
20260506031540 42 306 3.5 8.7 0.04 0.36 0.36 94 1012.7
20260506031038 42 290 3.5 10.4 0.04 0.36 0.36 94 1013.2
20260506030503 42 69 3.5 10.4 0.04 0.36 0.36 94 1013.0
20260506030003 42 5 5.2 11.3 0.04 0.36 0.36 94 1013.0
20260506025502 42 335 3.5 11.3 0.04 0.36 0.36 94 1012.6
20260506025100 42 325 5.2 9.6 0.05 0.36 0.36 94 1012.4
20260506024606 42 331 3.5 9.6 0.05 0.36 0.36 94 1012.3
20260506024059 42 313 3.5 9.6 0.05 0.35 0.35 94 1012.5
20260506023558 42 344 2.6 11.3 0.05 0.34 0.34 94 1012.1
20260506023056 43 10 5.2 12.2 0.05 0.34 0.34 94 1011.9
20260506022555 43 355 6.1 12.2 0.05 0.33 0.33 94 1012.1
20260506022055 43 336 3.5 10.4 0.05 0.33 0.33 94 1012.2
20260506021554 43 23 3.5 12.2 0.05 0.32 0.32 94 1012.1
20260506021056 43 5 4.3 12.2 0.07 0.32 0.32 95 1012.0
20260506020653 43 315 2.6 7.8 0.08 0.32 0.32 95 1011.7
20260506020109 43 26 2.6 7.0 0.09 0.32 0.32 95 1011.9
20260506015556 43 336 0.9 7.0 0.09 0.32 0.32 94 1011.8
20260506015056 43 355 1.7 7.0 0.08 0.31 0.31 94 1011.8
20260506014611 43 333 1.7 8.7 0.09 0.31 0.31 94 1011.6
20260506014055 43 309 2.6 8.7 0.09 0.30 0.30 94 1011.6
20260506013555 43 16 1.7 6.1 0.10 0.28 0.28 94 1011.6
20260506013051 43 67 2.6 9.6 0.10 0.28 0.28 94 1011.4
20260506012550 43 11 3.5 8.7 0.09 0.28 0.28 94 1011.4
20260506012051 43 30 0.9 7.0 0.10 0.28 0.28 94 1011.7
20260506011612 43 303 2.6 11.3 0.09 0.27 0.27 94 1011.8
20260506011048 43 33 2.6 11.3 0.08 0.25 0.25 94 1011.0
20260506010647 43 24 3.5 11.3 0.08 0.24 0.24 94 1011.1
20260506010052 43 26 4.3 11.3 0.07 0.23 0.23 94 1010.8
20260506005552 43 5 3.5 14.8 0.07 0.23 0.23 94 1010.8
20260506005051 43 350 4.3 14.8 0.07 0.23 0.23 94 1010.7
20260506004601 44 5 4.3 10.4 0.06 0.22 0.22 94 1010.8
20260506004049 44 15 2.6 8.7 0.06 0.21 0.21 94 1010.9
20260506003548 44 303 3.5 8.7 0.04 0.19 0.19 94 1010.7
20260506003047 44 360 4.3 13.0 0.04 0.19 0.19 94 1010.3
20260506002545 44 36 4.3 13.0 0.04 0.19 0.19 94 1010.3
20260506002045 44 325 1.7 8.7 0.03 0.18 0.18 94 1010.4
20260506001546 44 360 1.7 7.8 0.03 0.18 0.18 94 1010.3
20260506001044 44 341 2.6 8.7 0.03 0.17 0.17 94 1010.4
20260506000644 44 65 2.6 8.7 0.02 0.16 0.16 94 1010.1
20260506000114 44 5 2.6 7.8 0.03 0.16 0.16 94 1010.3
20260505235552 44 21 0.9 9.6 0.04 0.16 0.16 94 1010.6
20260505235047 44 329 3.5 9.6 0.05 0.16 0.16 94 1010.4
20260505234552 44 320 1.7 10.4 0.06 0.16 0.16 94 1010.5
20260505234046 44 325 2.6 9.6 0.05 0.15 0.15 93 1010.5
20260505233545 44 5 2.6 7.0 0.05 0.15 0.15 93 1010.4
20260505233044 44 34 3.5 6.1 0.05 0.15 0.15 93 1010.2
20260505232545 44 26 2.6 7.0 0.05 0.15 0.15 93 1009.7
20260505232046 44 355 2.6 5.2 0.05 0.15 0.15 93 1010.2
20260505231542 44 294 1.7 7.8 0.05 0.15 0.15 93 1009.7
20260505231045 44 327 2.6 7.8 0.04 0.14 0.14 92 1009.7
20260505230643 44 9 1.7 8.7 0.04 0.14 0.14 92 1009.5
20260505230104 44 5 2.6 8.7 0.03 0.13 0.13 92 1009.8
20260505225551 44 348 2.6 10.4 0.02 0.12 0.12 91 1009.8
20260505225050 45 19 3.5 10.4 0.01 0.11 0.11 90 1009.8
20260505224549 45 360 3.5 8.7 0.00 0.10 0.10 90 1009.8
20260505224047 45 308 1.7 8.7 0.00 0.10 0.10 90 1009.5
20260505223551 46 5 3.5 10.4 0.00 0.10 0.10 90 1009.8
20260505223047 46 321 3.5 11.3 0.00 0.10 0.10 89 1009.7
20260505222545 46 355 5.2 11.3 0.00 0.10 0.10 89 1009.3
20260505222044 46 55 2.6 11.3 0.00 0.10 0.10 89 1009.0
20260505221549 46 355 2.6 8.7 0.00 0.10 0.10 88 1009.0
20260505221041 47 309 1.7 7.8 0.00 0.10 0.10 87 1009.1
20260505220644 47 327 2.6 7.8 0.00 0.10 0.10 87 1009.0
20260505220044 47 346 2.6 11.3 0.00 0.10 0.10 85 1009.2
20260505215543 47 355 6.1 11.3 0.00 0.10 0.10 85 1009.2
20260505215042 48 40 4.3 9.6 0.00 0.10 0.10 85 1008.9
20260505214543 47 28 3.5 8.7 0.00 0.10 0.10 86 1009.0
20260505214047 47 11 2.6 9.6 0.00 0.10 0.10 86 1009.0
20260505213541 47 39 4.3 10.4 0.00 0.10 0.10 85 1009.2
20260505213041 47 329 2.6 13.0 0.00 0.10 0.10 86 1009.3
20260505212540 48 36 5.2 13.0 0.00 0.10 0.10 86 1009.0
20260505212041 48 288 7.0 13.0 0.00 0.10 0.10 85 1009.0
20260505211541 48 350 3.5 13.0 0.00 0.10 0.10 86 1008.8
20260505211037 48 355 5.2 10.4 0.00 0.10 0.10 86 1008.7
20260505210636 49 334 6.1 10.4 0.00 0.10 0.10 86 1008.8
20260505210059 49 5 3.5 13.9 0.00 0.10 0.10 85 1009.1
20260505205558 49 9 3.5 13.9 0.00 0.10 0.10 85 1009.3
20260505205058 49 170 2.6 10.4 0.00 0.10 0.10 85 1009.4
20260505204601 49 331 0.9 8.7 0.00 0.10 0.10 85 1009.2
20260505204056 49 11 4.3 11.3 0.00 0.10 0.10 84 1009.1
20260505203556 50 328 3.5 13.0 0.00 0.10 0.10 84 1008.9
20260505203101 50 11 3.5 13.0 0.00 0.10 0.10 84 1008.9
20260505202554 50 34 3.5 14.8 0.00 0.10 0.10 84 1008.9
20260505202054 50 101 5.2 14.8 0.00 0.10 0.10 84 1008.9
20260505201553 50 39 3.5 13.0 0.00 0.10 0.10 84 1008.9
20260505201052 50 24 6.1 12.2 0.00 0.10 0.10 85 1009.0
20260505200654 50 345 2.6 8.7 0.00 0.10 0.10 86 1008.9
20260505200052 50 350 3.5 7.0 0.00 0.10 0.10 85 1008.9
20260505195552 50 5 1.7 9.6 0.00 0.10 0.10 85 1009.2
20260505195052 50 329 4.3 11.3 0.00 0.10 0.10 85 1009.2
20260505194606 50 355 5.2 12.2 0.00 0.10 0.10 84 1009.3
20260505194052 50 360 4.3 12.2 0.00 0.10 0.10 84 1009.2
20260505193551 50 355 4.3 18.2 0.00 0.10 0.10 84 1009.0
20260505193050 50 9 8.7 18.2 0.00 0.10 0.10 85 1009.2
20260505192550 50 355 7.0 13.9 0.00 0.10 0.10 86 1009.4
20260505192050 50 348 3.5 12.2 0.00 0.10 0.10 89 1009.6
20260505191603 50 50 5.2 12.2 0.00 0.10 0.10 89 1009.7
20260505191050 50 355 4.3 9.6 0.00 0.10 0.10 90 1009.6
20260505190649 50 17 3.5 10.4 0.00 0.10 0.10 91 1009.5
20260505190051 50 347 3.5 11.3 0.00 0.10 0.10 91 1009.6
20260505185549 51 351 1.7 8.7 0.00 0.10 0.10 91 1009.8
20260505185049 51 24 2.6 9.6 0.00 0.10 0.10 91 1009.7
20260505184548 51 15 2.6 10.4 0.00 0.10 0.10 91 1009.3
20260505184048 51 17 1.7 10.4 0.00 0.10 0.10 91 1009.1
20260505183549 51 5 3.5 10.4 0.00 0.10 0.10 90 1009.0
20260505183046 51 34 1.7 13.0 0.00 0.10 0.10 91 1009.0
20260505182545 51 360 5.2 13.0 0.00 0.10 0.10 91 1008.9
20260505182049 51 5 4.3 8.7 0.00 0.10 0.10 91 1008.8
20260505181545 51 16 2.6 9.6 0.00 0.10 0.10 91 1008.8
20260505181046 51 87 1.7 9.6 0.00 0.10 0.10 91 1008.7
20260505180644 51 355 3.5 9.6 0.00 0.10 0.10 91 1008.7
20260505180054 51 12 2.6 8.7 0.00 0.10 0.10 91 1008.7
20260505175546 51 5 2.6 11.3 0.00 0.10 0.10 90 1008.7
20260505175045 51 11 3.5 11.3 0.00 0.10 0.10 89 1008.7
20260505174545 52 53 2.6 9.6 0.00 0.10 0.10 88 1008.9
20260505174045 52 34 1.7 9.6 0.00 0.10 0.10 88 1009.0
20260505173544 52 13 3.5 9.6 0.00 0.10 0.10 88 1009.1
20260505173048 52 278 3.5 10.4 0.00 0.10 0.10 87 1009.1
20260505172543 52 49 3.5 10.4 0.00 0.10 0.10 88 1009.7
20260505172042 52 360 2.6 8.7 0.00 0.10 0.10 88 1009.6
20260505171547 52 26 4.3 8.7 0.00 0.10 0.10 88 1009.5
20260505171042 52 310 0.9 10.4 0.00 0.10 0.10 89 1009.3
20260505170642 52 49 1.7 10.4 0.00 0.10 0.10 89 1009.6
20260505170041 52 327 3.5 8.7 0.00 0.10 0.10 89 1009.5
20260505165540 52 26 3.5 9.6 0.00 0.10 0.10 89 1009.3
20260505165039 52 323 3.5 9.6 0.00 0.10 0.10 89 1009.0
20260505164539 52 17 4.3 8.7 0.00 0.10 0.10 89 1008.8
20260505164039 52 32 1.7 8.7 0.00 0.10 0.10 89 1008.7
20260505163539 52 355 2.6 9.6 0.00 0.10 0.10 88 1008.5
20260505163037 53 360 3.5 11.3 0.00 0.10 0.10 88 1008.4
20260505162538 53 69 2.6 11.3 0.00 0.10 0.10 89 1008.2
20260505162036 52 19 4.3 8.7 0.00 0.10 0.10 88 1007.8
20260505161535 52 186 0.0 8.7 0.00 0.10 0.10 90 1008.0
20260505161037 52 333 1.7 10.4 0.00 0.10 0.10 89 1008.1
20260505160637 52 320 5.2 11.3 0.00 0.10 0.10 89 1008.2
20260505153055 54 341 2.6 8.7 0.00 0.10 0.10 86 1008.8
20260505152556 54 355 2.6 7.8 0.00 0.10 0.10 86 1008.9
20260505152054 54 15 1.7 7.8 0.00 0.10 0.10 85 1008.9
20260505151553 54 336 2.6 7.8 0.00 0.10 0.10 86 1008.6
20260505151053 54 46 1.7 7.0 0.00 0.10 0.10 85 1008.3
20260505150654 55 316 2.6 8.7 0.00 0.10 0.10 85 1008.4
20260505150108 55 355 3.5 8.7 0.00 0.10 0.10 85 1008.4
20260505140645 54 113 3.5 10.4 0.00 0.10 0.10 86 1007.9
20260505124554 53 43 3.5 14.8 0.00 0.10 0.10 91 1007.8
20260505124052 53 355 6.1 14.8 0.00 0.10 0.10 91 1007.9
20260505123550 53 82 6.1 20.0 0.00 0.10 0.10 91 1007.9
20260505123055 53 119 6.1 20.0 0.00 0.10 0.10 91 1007.8
20260505122543 53 44 6.1 17.4 0.00 0.10 0.10 92 1008.1
20260505122044 54 360 6.1 16.5 0.00 0.10 0.10 93 1007.8
20260505121612 54 33 4.3 11.3 0.00 0.10 0.10 93 1007.9
20260505121040 54 32 2.6 13.0 0.00 0.10 0.10 93 1007.8
20260505120641 54 360 4.3 13.0 0.00 0.10 0.10 92 1007.7
20260505120051 54 325 5.2 13.0 0.00 0.10 0.10 92 1007.7
20260505115550 55 24 3.5 14.8 0.00 0.10 0.10 92 1007.7
20260505115048 56 5 7.0 14.8 0.00 0.10 0.10 92 1007.4
20260505114547 56 331 3.5 17.4 0.01 0.10 0.10 92 1007.3
20260505114046 57 360 8.7 18.2 0.01 0.10 0.10 92 1007.0
20260505113544 58 345 7.8 18.2 0.04 0.10 0.10 93 1006.9
20260505113046 59 342 4.3 11.3 0.10 0.10 0.10 93 1006.9
20260505112541 59 329 4.3 11.3 0.10 0.10 0.10 93 1006.9
20260505112041 58 355 2.6 5.2 0.10 0.10 0.10 93 1006.9
20260505111542 58 355 1.7 5.2 0.10 0.10 0.10 93 1006.7
20260505111041 58 360 0.0 4.3 0.10 0.10 0.10 92 1006.5
20260505110637 58 311 0.9 4.3 0.10 0.10 0.10 92 1006.3
20260505102038 61 152 0.9 5.2 0.00 0.00 0.00 80 1004.6
20260505101542 61 134 1.7 7.8 0.00 0.00 0.00 80 1004.5
20260505101038 61 151 0.9 7.8 0.00 0.00 0.00 81 1004.3
20260505100638 61 159 1.7 5.2 0.00 0.00 0.00 81 1004.3
20260505100137 61 180 1.7 6.1 0.00 0.00 0.00 81 1004.2
20260505095600 61 122 0.9 6.1 0.00 0.00 0.00 81 1004.4
20260505095057 61 138 1.7 6.1 0.00 0.00 0.00 82 1004.4
20260505094557 61 143 0.9 6.1 0.00 0.00 0.00 82 1004.5
20260505094057 61 146 1.7 5.2 0.00 0.00 0.00 82 1004.3
20260505093556 61 142 0.9 5.2 0.00 0.00 0.00 83 1004.5
20260505093056 60 229 1.7 5.2 0.00 0.00 0.00 83 1004.4
20260505092558 60 184 0.9 6.1 0.00 0.00 0.00 85 1004.3
20260505092055 60 186 0.9 4.3 0.00 0.00 0.00 84 1004.7
20260505091616 60 165 0.9 5.2 0.00 0.00 0.00 85 1004.8
20260505091053 60 212 1.7 5.2 0.00 0.00 0.00 84 1004.7
20260505090654 60 124 0.9 4.3 0.00 0.00 0.00 84 1004.8
20260505090101 60 185 0.9 5.2 0.00 0.00 0.00 84 1004.9
20260505085554 60 85 0.9 5.2 0.00 0.00 0.00 84 1004.9
20260505085054 60 192 1.7 3.5 0.00 0.00 0.00 84 1004.8
20260505084554 60 169 0.9 6.1 0.00 0.00 0.00 85 1004.8
20260505084053 59 146 1.7 6.1 0.00 0.00 0.00 85 1004.8
20260505083553 59 128 1.7 4.3 0.00 0.00 0.00 85 1004.9
20260505083053 59 147 0.9 4.3 0.00 0.00 0.00 85 1004.9
20260505082551 59 125 0.9 4.3 0.00 0.00 0.00 85 1004.9
20260505082052 59 140 1.7 4.3 0.00 0.00 0.00 85 1004.8
20260505081551 60 165 0.9 5.2 0.00 0.00 0.00 84 1004.9
20260505081051 60 146 1.7 5.2 0.00 0.00 0.00 84 1004.9
20260505080650 60 143 0.0 5.2 0.00 0.00 0.00 85 1005.0
20260505080055 59 153 0.9 5.2 0.00 0.00 0.00 86 1005.3
20260505075555 58 157 0.9 1.7 0.00 0.00 0.00 87 1005.4
20260505075055 58 167 0.0 2.6 0.00 0.00 0.00 88 1005.5
20260505074554 58 119 0.0 1.7 0.00 0.00 0.00 88 1005.5
20260505074056 59 153 0.0 1.7 0.00 0.00 0.00 87 1005.7
20260505073553 59 148 0.0 0.9 0.00 0.00 0.00 86 1006.0
20260505073058 59 148 0.0 0.9 0.00 0.00 0.00 86 1006.0
20260505072550 59 165 0.0 0.9 0.00 0.00 0.00 86 1006.2
20260505072051 59 190 0.0 0.9 0.00 0.00 0.00 85 1006.3
20260505071549 59 190 0.0 0.0 0.00 0.00 0.00 85 1006.5
20260505071048 60 190 0.0 0.9 0.00 0.00 0.00 85 1006.5
20260505070649 60 190 0.0 0.9 0.00 0.00 0.00 83 1006.5
20260505070051 60 190 0.0 0.9 0.00 0.00 0.00 83 1006.4
20260505065549 60 190 0.0 0.9 0.00 0.00 0.00 82 1006.4
20260505065049 61 182 0.0 0.9 0.00 0.00 0.00 82 1006.1
20260505064548 61 182 0.0 0.9 0.00 0.00 0.00 82 1006.2
20260505064047 61 182 0.0 2.6 0.00 0.00 0.00 82 1006.0
20260505063546 61 182 0.0 2.6 0.00 0.00 0.00 81 1006.0
20260505063050 62 194 0.0 5.2 0.00 0.00 0.00 80 1005.8
20260505062545 62 188 0.9 6.1 0.00 0.00 0.00 78 1005.7
20260505062045 62 211 1.7 6.1 0.00 0.00 0.00 78 1005.6
20260505061547 62 200 0.9 4.3 0.00 0.00 0.00 79 1005.2
20260505061046 62 178 1.7 6.1 0.00 0.00 0.00 79 1004.8
20260505060645 62 173 2.6 6.1 0.00 0.00 0.00 80 1004.8
20260505060048 62 167 0.9 4.3 0.00 0.00 0.00 79 1004.9
20260505055548 62 160 0.9 4.3 0.00 0.00 0.00 77 1004.9
20260505055047 62 165 0.9 4.3 0.00 0.00 0.00 77 1004.9
20260505054613 62 140 2.6 5.2 0.00 0.00 0.00 78 1005.1
20260505054045 62 144 0.9 5.2 0.00 0.00 0.00 77 1005.5
20260505053545 62 140 0.9 7.0 0.00 0.00 0.00 77 1005.7
20260505053048 63 184 1.7 7.0 0.00 0.00 0.00 76 1005.5
20260505052546 63 203 0.0 5.2 0.00 0.00 0.00 76 1005.6
20260505052042 63 142 2.6 8.7 0.00 0.00 0.00 76 1005.6
20260505051544 63 201 1.7 8.7 0.00 0.00 0.00 75 1005.6
20260505051041 63 134 1.7 6.1 0.00 0.00 0.00 75 1005.8